SCP
0 0 0 0 0 0 0 0 0 0 0 0 0 0 0 0 0 0 0 0 0 0
0 0 0 0 0 0 0 0 0 0 0 0 0 0 0 0 0 0 0 0 0 0
0 0 0 0 0 0 0 0 0 0 0 0 0 0 0 0 0 0 0 0 0 0
0 0 0 0 0 0 0 0 0 0 0 0 0 0 0 0 0 0 0 0 0 0
0 0 0 0 0 0 0 0 0 0 0 0 0 0 0 0 0 0 0 0 0 0
0 0 0 0 0 0 0 0 0 0 0 0 0 0 0 0 0 0 0 0 0 0
0 0 0 0 0 0 0 0 0 0 0 0 0 0 0 0 0 0 0 0 0 0
0 0 0 0 0 0 0 0 0 0 0 0 0 0 0 0 0 0 0 0 0 0
0 0 0 0 0 0 0 0 0 0 0 0 0 0 0 0 0 0 0 0 0 0
0 0 0 0 0 0 0 0 0 0 0 0 0 0 0 0 0 0 0 0 0 0
0 0 0 0 0 0 0 0 0 0 0 0 0 0 0 0 0 0 0 0 0 0
0 0 0 0 0 0 0 0 0 0 0 0 0 0 0 0 0 0 0 0 0 0
0 0 0 0 0 0 0 0 0 0 0 0 0 0 0 0 0 0 0 0 0 0
0 0 0 0 0 0 0 0 0 0 0 0 0 0 0 0 0 0 0 0 0 0
Wind_Speed_500mb
46 47 48 51 52 54 52 48 42 42 45 46 49 50 47 50 55 50 53 48 53 58
41 46 49 48 46 48 51 49 46 46 47 48 48 48 52 48 53 56 58 58 56 63
33 35 36 42 43 44 44 45 46 46 49 50 49 50 54 57 62 54 57 58 60 61
20 24 27 30 34 36 37 38 41 42 45 48 47 45 46 49 50 52 55 60 63 64
19 20 22 24 25 27 29 31 30 30 31 32 34 37 40 45 48 52 57 60 64 66
23 21 20 19 18 17 16 17 18 21 23 26 30 34 38 42 45 49 52 55 60 63
21 20 17 13 10 8 7 7 8 11 15 19 23 28 32 37 41 46 49 52 56 59
20 18 15 11 7 4 4 7 11 14 19 23 27 31 36 41 46 49 52 53 56 59
15 11 8 4 3 7 12 16 20 24 29 32 35 39 44 50 55 59 65 68 68 69
8 4 2 6 11 15 20 23 27 32 37 40 43 48 52 57 64 69 72 75 78 81
3 5 9 13 18 22 26 30 34 38 42 45 46 50 55 60 65 70 74 76 78 81
5 10 15 20 25 30 34 38 41 46 50 55 55 57 61 66 70 75 78 78 80 82
10 18 24 30 33 38 43 46 50 54 57 61 65 63 63 64 72 79 81 82 82 79
23 24 28 33 39 43 49 55 59 63 65 68 70 71 67 64 69 74 81 84 86 83
Wind_Direction_500mb
220 225 227 232 238 247 250 253 251 248 247 252 261 268 273 274 273 278 282 281 284 288
217 220 226 232 236 240 246 249 249 251 254 255 260 263 265 273 273 276 277 279 279 279
220 217 223 231 237 242 246 249 249 252 254 257 261 264 267 266 272 273 276 278 278 277
193 200 210 222 228 233 239 243 248 252 257 261 263 265 267 271 275 278 280 280 280 280
186 192 200 212 220 229 236 240 245 249 253 257 263 269 273 277 279 281 283 285 286 287
164 167 174 183 190 203 221 236 248 259 267 275 279 281 283 284 284 285 286 286 287 289
154 156 158 162 171 185 214 245 265 279 285 285 288 288 290 291 292 293 293 293 294 294
150 148 149 152 160 182 243 274 289 296 297 298 299 298 297 296 296 296 295 296 298 298
148 146 151 171 252 292 297 302 305 305 305 306 306 306 304 303 303 303 303 302 300 298
164 190 259 308 313 315 315 319 318 317 314 313 315 313 309 305 302 300 298 299 299 299
222 315 338 333 327 325 324 323 320 317 315 312 311 309 306 304 302 301 301 301 301 300
295 329 333 325 322 321 320 318 316 315 313 312 312 310 308 307 305 303 302 303 303 302
322 327 321 319 319 320 319 317 315 314 314 313 311 310 308 308 305 304 304 305 304 305
298 307 314 320 321 321 321 320 319 317 318 318 318 317 315 313 308 307 307 307 307 307
Wind_Speed_850mb
46 47 48 51 52 54 52 48 42 42 45 46 49 50 47 50 55 50 53 48 53 58
41 46 49 48 46 48 51 49 46 46 47 48 48 48 52 48 53 56 58 58 56 63
33 35 36 42 43 44 44 45 46 46 49 50 49 50 54 57 62 54 57 58 60 61
20 24 27 30 34 36 37 38 41 42 45 48 47 45 46 49 50 52 55 60 63 64
19 20 22 24 25 27 29 31 30 30 31 32 34 37 40 45 48 52 57 60 64 66
23 21 20 19 18 17 16 17 18 21 23 26 30 34 38 42 45 49 52 55 60 63
21 20 17 13 10 8 7 7 8 11 15 19 23 28 32 37 41 46 49 52 56 59
20 18 15 11 7 4 4 7 11 14 19 23 27 31 36 41 46 49 52 53 56 59
15 11 8 4 3 7 12 16 20 24 29 32 35 39 44 50 55 59 65 68 68 69
8 4 2 6 11 15 20 23 27 32 37 40 43 48 52 57 64 69 72 75 78 81
3 5 9 13 18 22 26 30 34 38 42 45 46 50 55 60 65 70 74 76 78 81
5 10 15 20 25 30 34 38 41 46 50 55 55 57 61 66 70 75 78 78 80 82
10 18 24 30 33 38 43 46 50 54 57 61 65 63 63 64 72 79 81 82 82 79
23 24 28 33 39 43 49 55 59 63 65 68 70 71 67 64 69 74 81 84 86 83
Wind_Direction_850mb
220 225 227 232 238 247 250 253 251 248 247 252 261 268 273 274 273 278 282 281 284 288
217 220 226 232 236 240 246 249 249 251 254 255 260 263 265 273 273 276 277 279 279 279
220 217 223 231 237 242 246 249 249 252 254 257 261 264 267 266 272 273 276 278 278 277
193 200 210 222 228 233 239 243 248 252 257 261 263 265 267 271 275 278 280 280 280 280
186 192 200 212 220 229 236 240 245 249 253 257 263 269 273 277 279 281 283 285 286 287
164 167 174 183 190 203 221 236 248 259 267 275 279 281 283 284 284 285 286 286 287 289
154 156 158 162 171 185 214 245 265 279 285 285 288 288 290 291 292 293 293 293 294 294
150 148 149 152 160 182 243 274 289 296 297 298 299 298 297 296 296 296 295 296 298 298
148 146 151 171 252 292 297 302 305 305 305 306 306 306 304 303 303 303 303 302 300 298
164 190 259 308 313 315 315 319 318 317 314 313 315 313 309 305 302 300 298 299 299 299
222 315 338 333 327 325 324 323 320 317 315 312 311 309 306 304 302 301 301 301 301 300
295 329 333 325 322 321 320 318 316 315 313 312 312 310 308 307 305 303 302 303 303 302
322 327 321 319 319 320 319 317 315 314 314 313 311 310 308 308 305 304 304 305 304 305
298 307 314 320 321 321 321 320 319 317 318 318 318 317 315 313 308 307 307 307 307 307